Simultaneous Nadir Overpasses (SNOs) Predictions

Prediction of SNOs between NOAA-20 and METOP-C Satellite Orbit:

Table of predicted SNOs for the next 14.0 days since TLE Epoch: 3/29/2019
Index Date (NOAA-20) Time (NOAA-20) Lat,Lon (NOAA-20) SZA (NOAA-20 ) Date (METOP-C) Time (METOP-C) Lat,Lon (METOP-C) SZA (METOP-C ) Distance(km) Time Diff (sec)
1 04/03/2019 01:35:42 73.38, 146.66 68.43 04/03/2019 01:36:50 73.30, 148.95 68.22 73.55 68
2 04/03/2019 02:26:24 -73.29, -45.82 111.69 04/03/2019 02:27:33 -73.20, -43.93 111.88 61.30 69
3 04/03/2019 03:17:06 73.08, 121.94 68.08 04/03/2019 03:18:17 73.03, 123.02 67.95 35.53 71
4 04/03/2019 04:07:48 -72.99, -70.55 112.04 04/03/2019 04:09:00 -72.93, -69.85 112.15 23.66 72
5 04/03/2019 04:58:30 72.79, 97.20 67.72 04/03/2019 04:59:43 72.80, 97.21 67.73 1.93 73
6 04/03/2019 05:49:14 -72.80, -95.51 112.28 04/03/2019 05:50:24 -72.81, -95.44 112.28 2.77 70
7 04/03/2019 06:40:00 72.79, 71.81 67.70 04/03/2019 06:41:05 72.78, 71.83 67.68 0.99 65
8 04/03/2019 07:30:44 -72.80,-120.89 112.30 04/03/2019 07:31:46 -72.79,-120.82 112.33 2.52 62
9 04/03/2019 08:21:29 72.75, 46.53 67.63 04/03/2019 08:22:27 72.77, 46.45 67.64 3.41 58
10 04/03/2019 09:12:13 -72.76,-146.17 112.38 04/03/2019 09:13:08 -72.78,-146.20 112.37 2.22 55
11 04/03/2019 10:02:59 72.75, 21.15 67.61 04/03/2019 10:03:49 72.75, 21.07 67.59 2.52 50
12 04/03/2019 10:53:43 -72.76,-171.56 112.40 04/03/2019 10:54:30 -72.76,-171.58 112.42 0.91 47
13 04/03/2019 11:44:29 72.76, -4.24 67.58 04/03/2019 11:45:10 72.78, -4.20 67.59 2.66 41
14 04/03/2019 12:35:13 -72.77, 163.06 112.42 04/03/2019 12:35:52 -72.74, 163.04 112.46 3.35 39
15 04/03/2019 13:25:59 72.76, -29.63 67.56 04/03/2019 13:26:32 72.76, -29.58 67.55 1.53 33
16 04/03/2019 14:16:43 -72.77, 137.67 112.44 04/03/2019 14:17:13 -72.77, 137.77 112.46 3.30 30
17 04/03/2019 15:07:28 72.72, -54.91 67.49 04/03/2019 15:07:54 72.74, -54.96 67.51 3.10 26
18 04/03/2019 15:58:12 -72.73, 112.39 112.52 04/03/2019 15:58:35 -72.75, 112.39 112.50 2.56 23
19 04/03/2019 16:48:58 72.72, -80.29 67.47 04/03/2019 16:49:16 72.72, -80.34 67.46 1.53 18
20 04/03/2019 17:39:42 -72.73, 87.00 112.54 04/03/2019 17:39:57 -72.73, 87.01 112.55 0.33 15
21 04/03/2019 18:30:28 72.73,-105.68 67.44 04/03/2019 18:30:38 72.70,-105.72 67.42 3.15 10
22 04/03/2019 19:21:12 -72.74, 61.62 112.56 04/03/2019 19:21:19 -72.71, 61.63 112.59 2.86 7
23 04/03/2019 20:11:58 72.73,-131.07 67.42 04/03/2019 20:11:59 72.74,-130.99 67.42 2.42 1
24 04/03/2019 21:02:41 -72.69, 36.34 112.64 04/03/2019 21:02:41 -72.70, 36.25 112.63 2.67 0
25 04/03/2019 21:53:27 72.69,-156.35 67.35 04/03/2019 21:53:21 72.72,-156.37 67.38 3.11 6
26 04/03/2019 22:44:11 -72.70, 10.95 112.66 04/03/2019 22:44:02 -72.73, 10.98 112.63 3.25 9
27 04/03/2019 23:34:57 72.70, 178.27 67.33 04/03/2019 23:34:43 72.70, 178.25 67.33 0.64 14
28 04/04/2019 00:25:41 -72.71, -14.44 112.68 04/04/2019 00:25:24 -72.71, -14.40 112.68 1.32 17
29 04/04/2019 01:16:27 72.70, 152.88 67.30 04/04/2019 01:16:05 72.68, 152.87 67.29 2.46 22
30 04/04/2019 02:07:11 -72.71, -39.82 112.70 04/04/2019 02:06:46 -72.69, -39.78 112.72 2.74 25
31 04/04/2019 02:57:57 72.71, 127.50 67.28 04/04/2019 02:57:26 72.71, 127.60 67.29 3.40 31
32 04/04/2019 03:48:40 -72.67, -65.10 112.78 04/04/2019 03:48:08 -72.67, -65.15 112.76 1.82 32
33 04/04/2019 04:39:26 72.66, 102.21 67.21 04/04/2019 04:38:48 72.69, 102.22 67.25 3.44 38
34 04/04/2019 05:30:10 -72.67, -90.49 112.80 04/04/2019 05:29:30 -72.65, -90.53 112.81 2.50 40
35 04/04/2019 06:20:55 72.67, 76.83 67.19 04/04/2019 06:20:09 72.67, 76.84 67.20 0.81 46
36 04/04/2019 07:11:39 -72.68,-115.87 112.82 04/04/2019 07:10:50 -72.68,-115.81 112.81 2.42 49
37 04/04/2019 08:02:25 72.67, 51.44 67.16 04/04/2019 08:01:31 72.65, 51.46 67.16 2.09 54
38 04/04/2019 08:53:09 -72.68,-141.26 112.84 04/04/2019 08:52:12 -72.67,-141.19 112.85 3.05 57
39 04/04/2019 09:43:54 72.63, 26.16 67.09 04/04/2019 09:42:53 72.64, 26.08 67.11 2.75 61
40 04/04/2019 10:34:38 -72.64,-166.54 112.92 04/04/2019 10:33:34 -72.65,-166.56 112.89 1.37 64
41 04/04/2019 11:25:24 72.63, 0.77 67.07 04/04/2019 11:24:15 72.62, 0.70 67.07 2.95 69
42 04/04/2019 12:16:08 -72.64, 168.07 112.94 04/04/2019 12:14:56 -72.63, 168.06 112.94 1.59 72
43 04/04/2019 13:06:52 72.54, -24.40 66.94 04/04/2019 13:05:38 72.55, -24.78 66.98 12.51 74
44 04/04/2019 13:57:34 -72.44, 143.10 113.18 04/04/2019 13:56:21 -72.46, 142.37 113.12 24.31 73
45 04/04/2019 14:48:16 72.23, -49.18 66.58 04/04/2019 14:47:06 72.22, -50.76 66.66 53.67 70
46 04/04/2019 15:38:58 -72.14, 118.31 113.53 04/04/2019 15:37:49 -72.13, 116.40 113.43 65.30 69
47 04/04/2019 16:29:40 71.93, -73.98 66.23 04/04/2019 16:28:33 71.94, -76.63 66.39 91.40 67




NCC Satellite Simultaneous Nadir Overpasses (SNOs) Prediction Service
